Location: Amon Carter Post Office
(32.8281°N, 97.0484°W)
Time: 05:04:30
(UTC+00:00)

SL-4 R/B - Pass Details

Date: 10 July 2022
Orbit: 425 x 653 km, 51.6° (Epoch: 17 August)

Event Time Altitude Azimuth Distance (km) Brightness Sun altitude
Rises 10:38:54 0° 318° (NW) 2,593 5.4 -9.7°
Reaches altitude 10° 10:41:04 10° 323° (NW) 1,745 4.6 -9.3°
Maximum altitude 10:44:57 54° 42° (NE) 664 2.9 -8.6°
Drops below altitude 10° 10:49:09 10° 120° (ESE) 1,880 5.1 -7.9°
Sets 10:51:33 0° 125° (SE) 2,816 6.0 -7.5°
